Time,TemperatureF,DewpointF,PressureIn,WindDirection,WindDirectionDegrees,WindSpeedMPH,WindSpeedGustMPH,Humidity,HourlyPrecipIn,Conditions,Clouds,dailyrainin,SoftwareType,DateUTC
2013-01-14 00:21:00,29.5,7.0,29.91,North,0,0.0,0.0,38,0.00,,,-99.99,VWS V12.07,2013-01-13 23:21:00,
2013-01-14 00:46:00,28.6,8.9,29.94,North,0,0.0,0.0,43,0.00,,,-99.99,VWS V12.07,2013-01-13 23:46:00,
2013-01-14 01:05:00,29.5,9.3,29.91,North,0,0.0,0.0,43,0.00,,,-99.99,VWS V12.07,2013-01-14 00:05:00,
2013-01-14 01:16:00,28.4,9.3,29.91,North,0,0.0,0.0,43,0.00,,,-99.99,VWS V12.07,2013-01-14 00:16:00,
2013-01-14 01:31:00,27.7,8.3,29.91,North,0,0.0,0.0,44,0.00,,,-99.99,VWS V12.07,2013-01-14 00:31:00,
2013-01-14 01:46:00,26.1,7.6,29.91,North,0,0.0,0.0,45,0.00,,,-99.99,VWS V12.07,2013-01-14 00:46:00,
2013-01-14 02:05:00,27.5,15.8,29.94,North,0,0.0,0.0,61,0.00,,,-99.99,VWS V12.07,2013-01-14 01:05:00,
2013-01-14 02:16:00,27.0,13.4,29.94,North,0,0.0,0.0,56,0.00,,,-99.99,VWS V12.07,2013-01-14 01:16:00,
2013-01-14 02:31:00,26.2,13.1,29.94,North,0,0.0,0.0,57,0.00,,,-99.99,VWS V12.07,2013-01-14 01:31:00,
2013-01-14 02:46:00,25.9,12.6,29.94,North,0,0.0,0.0,57,0.00,,,-99.99,VWS V12.07,2013-01-14 01:46:00,
2013-01-14 03:05:00,25.7,13.2,29.94,North,0,0.0,0.0,59,0.00,,,-99.99,VWS V12.07,2013-01-14 02:05:00,
2013-01-14 03:16:00,25.7,14.0,29.94,North,0,0.0,0.0,61,0.00,,,-99.99,VWS V12.07,2013-01-14 02:16:00,
2013-01-14 03:31:00,25.2,14.0,29.94,North,0,0.0,0.0,62,0.00,,,-99.99,VWS V12.07,2013-01-14 02:31:00,
2013-01-14 03:46:00,24.3,13.1,29.94,North,0,0.0,0.0,62,0.00,,,-99.99,VWS V12.07,2013-01-14 02:46:00,
2013-01-14 04:05:00,24.6,14.4,29.94,North,0,0.0,0.0,65,0.00,,,-99.99,VWS V12.07,2013-01-14 03:05:00,
2013-01-14 04:16:00,24.1,13.3,29.94,North,0,0.0,0.0,63,0.00,,,-99.99,VWS V12.07,2013-01-14 03:16:00,
2013-01-14 04:31:00,23.5,12.1,29.91,North,0,0.0,0.0,61,0.00,,,-99.99,VWS V12.07,2013-01-14 03:31:00,
2013-01-14 04:46:00,23.5,12.4,29.91,North,0,0.0,0.0,62,0.00,,,-99.99,VWS V12.07,2013-01-14 03:46:00,
2013-01-14 05:05:00,24.6,14.9,29.91,North,0,0.0,0.0,66,0.00,,,-99.99,VWS V12.07,2013-01-14 04:05:00,
2013-01-14 05:16:00,24.6,15.1,29.91,North,0,0.0,0.0,66,0.00,,,-99.99,VWS V12.07,2013-01-14 04:16:00,
2013-01-14 05:31:00,25.3,16.3,29.91,North,0,0.0,0.0,68,0.00,,,-99.99,VWS V12.07,2013-01-14 04:31:00,
2013-01-14 05:46:00,24.6,15.6,29.91,North,0,0.0,0.0,68,0.00,,,-99.99,VWS V12.07,2013-01-14 04:46:00,
2013-01-14 06:05:00,24.1,13.5,29.91,North,0,0.0,0.0,63,0.00,,,-99.99,VWS V12.07,2013-01-14 05:05:00,
2013-01-14 06:16:00,23.9,12.8,29.91,North,0,0.0,0.0,62,0.00,,,-99.99,VWS V12.07,2013-01-14 05:16:00,
2013-01-14 06:31:00,24.1,12.2,29.91,North,0,0.0,0.0,60,0.00,,,-99.99,VWS V12.07,2013-01-14 05:31:00,
2013-01-14 06:46:00,24.4,13.3,29.91,North,0,0.0,0.0,62,0.00,,,-99.99,VWS V12.07,2013-01-14 05:46:00,
2013-01-14 07:06:00,24.6,11.6,29.91,North,0,0.0,0.0,57,0.00,,,-99.99,VWS V12.07,2013-01-14 06:06:00,
2013-01-14 07:16:00,24.4,12.2,29.91,North,0,0.0,0.0,59,0.00,,,-99.99,VWS V12.07,2013-01-14 06:16:00,
2013-01-14 07:31:00,24.8,12.5,29.94,North,0,0.0,0.0,59,0.00,,,-99.99,VWS V12.07,2013-01-14 06:31:00,
2013-01-14 07:46:00,24.6,10.9,29.91,North,0,0.0,0.0,55,0.00,,,-99.99,VWS V12.07,2013-01-14 06:46:00,
2013-01-14 08:06:00,24.4,9.8,29.94,North,0,0.0,0.0,53,0.00,,,-99.99,VWS V12.07,2013-01-14 07:06:00,
2013-01-14 08:16:00,24.6,11.3,29.94,North,0,0.0,0.0,55,0.00,,,-99.99,VWS V12.07,2013-01-14 07:16:00,
2013-01-14 08:31:00,25.7,14.1,29.94,North,0,0.0,0.0,61,0.00,,,-99.99,VWS V12.07,2013-01-14 07:31:00,
2013-01-14 08:46:00,26.1,14.5,29.94,North,0,0.0,0.0,61,0.00,,,-99.99,VWS V12.07,2013-01-14 07:46:00,
2013-01-14 09:06:00,25.5,13.4,29.94,North,0,0.0,0.0,59,0.00,,,-99.99,VWS V12.07,2013-01-14 08:06:00,
2013-01-14 09:16:00,26.8,15.0,29.94,North,0,0.0,0.0,61,0.00,,,-99.99,VWS V12.07,2013-01-14 08:16:00,
2013-01-14 09:31:00,27.1,16.2,29.94,North,0,0.0,0.0,63,0.00,,,-99.99,VWS V12.07,2013-01-14 08:31:00,
2013-01-14 10:06:00,28.6,18.7,29.94,North,0,0.0,0.0,66,0.00,,,-99.99,VWS V12.07,2013-01-14 09:06:00,
2013-01-14 10:16:00,29.1,18.5,29.94,North,0,0.0,0.0,63,0.00,,,-99.99,VWS V12.07,2013-01-14 09:16:00,
2013-01-14 10:31:00,32.4,11.0,29.94,North,0,0.0,0.0,41,0.00,,,-99.99,VWS V12.07,2013-01-14 09:31:00,
2013-01-14 10:46:00,34.0,6.1,29.94,North,0,0.0,0.0,30,0.00,,,-99.99,VWS V12.07,2013-01-14 09:46:00,
2013-01-14 11:06:00,33.4,5.8,29.94,North,0,0.0,0.0,31,0.00,,,-99.99,VWS V12.07,2013-01-14 10:06:00,
2013-01-14 11:16:00,36.5,1.7,29.94,North,0,0.0,0.0,22,0.00,,,-99.99,VWS V12.07,2013-01-14 10:16:00,
2013-01-14 11:31:00,38.8,2.4,29.94,North,0,0.0,0.0,21,0.00,,,-99.99,VWS V12.07,2013-01-14 10:31:00,
2013-01-14 11:46:00,39.7,3.2,29.94,North,0,0.0,0.0,21,0.00,,,-99.99,VWS V12.07,2013-01-14 10:46:00,
2013-01-14 12:06:00,36.5,1.3,29.91,North,0,0.0,0.0,22,0.00,,,-99.99,VWS V12.07,2013-01-14 11:06:00,
2013-01-14 12:16:00,35.8,0.8,29.91,North,0,0.0,0.0,22,0.00,,,-99.99,VWS V12.07,2013-01-14 11:16:00,
2013-01-14 12:31:00,37.0,1.6,29.91,North,0,0.0,0.0,22,0.00,,,-99.99,VWS V12.07,2013-01-14 11:31:00,
2013-01-14 12:46:00,38.8,2.6,29.91,North,0,0.0,0.0,21,0.00,,,-99.99,VWS V12.07,2013-01-14 11:46:00,
2013-01-14 13:06:00,37.4,1.0,29.88,North,0,0.0,0.0,21,0.00,,,-99.99,VWS V12.07,2013-01-14 12:06:00,
2013-01-14 13:16:00,38.7,1.6,29.88,North,0,0.0,0.0,21,0.00,,,-99.99,VWS V12.07,2013-01-14 12:16:00,
2013-01-14 13:31:00,37.6,-0.9,29.88,North,0,0.0,0.0,19,0.00,,,-99.99,VWS V12.07,2013-01-14 12:31:00,
2013-01-14 13:46:00,36.9,-1.5,29.85,North,0,0.0,0.0,19,0.00,,,-99.99,VWS V12.07,2013-01-14 12:46:00,
2013-01-14 14:06:00,36.0,-2.1,29.85,North,0,0.0,0.0,19,0.00,,,-99.99,VWS V12.07,2013-01-14 13:06:00,
2013-01-14 14:16:00,36.1,-2.1,29.85,North,0,0.0,0.0,19,0.00,,,-99.99,VWS V12.07,2013-01-14 13:16:00,
2013-01-14 14:31:00,35.6,-2.4,29.85,North,0,0.0,0.0,19,0.00,,,-99.99,VWS V12.07,2013-01-14 13:31:00,
2013-01-14 14:46:00,35.6,-2.6,29.85,North,0,0.0,0.0,19,0.00,,,-99.99,VWS V12.07,2013-01-14 13:46:00,
2013-01-14 15:06:00,34.9,-2.0,29.83,North,0,0.0,0.0,20,0.00,,,-99.99,VWS V12.07,2013-01-14 14:06:00,
2013-01-14 15:16:00,35.2,-1.8,29.83,North,0,0.0,0.0,20,0.00,,,-99.99,VWS V12.07,2013-01-14 14:16:00,
2013-01-14 15:31:00,35.4,-1.6,29.83,North,0,0.0,0.0,20,0.00,,,-99.99,VWS V12.07,2013-01-14 14:31:00,
2013-01-14 15:46:00,35.2,-1.8,29.83,North,0,0.0,0.0,20,0.00,,,-99.99,VWS V12.07,2013-01-14 14:46:00,
2013-01-14 16:06:00,35.2,-1.8,29.83,North,0,0.0,0.0,20,0.00,,,-99.99,VWS V12.07,2013-01-14 15:06:00,
2013-01-14 16:16:00,35.1,-2.0,29.83,North,0,0.0,0.0,20,0.00,,,-99.99,VWS V12.07,2013-01-14 15:16:00,
2013-01-14 16:31:00,34.9,-2.1,29.80,North,0,0.0,0.0,20,0.00,,,-99.99,VWS V12.07,2013-01-14 15:31:00,
2013-01-14 16:46:00,34.7,-2.3,29.80,North,0,0.0,0.0,20,0.00,,,-99.99,VWS V12.07,2013-01-14 15:46:00,
2013-01-14 17:06:00,34.7,-0.2,29.80,North,0,0.0,0.0,22,0.00,,,-99.99,VWS V12.07,2013-01-14 16:06:00,
2013-01-14 17:16:00,34.7,-0.2,29.80,North,0,0.0,0.0,22,0.00,,,-99.99,VWS V12.07,2013-01-14 16:16:00,
2013-01-14 17:31:00,34.7,-0.2,29.80,North,0,0.0,0.0,22,0.00,,,-99.99,VWS V12.07,2013-01-14 16:31:00,
2013-01-14 17:46:00,34.9,-0.1,29.77,North,0,0.0,0.0,22,0.00,,,-99.99,VWS V12.07,2013-01-14 16:46:00,
2013-01-14 18:06:00,34.9,-0.1,29.77,North,0,0.0,0.0,22,0.00,,,-99.99,VWS V12.07,2013-01-14 17:06:00,
2013-01-14 18:16:00,34.9,-0.1,29.77,North,0,0.0,0.0,22,0.00,,,-99.99,VWS V12.07,2013-01-14 17:16:00,
2013-01-14 18:31:00,34.9,2.6,29.74,North,0,0.0,0.0,25,0.00,,,-99.99,VWS V12.07,2013-01-14 17:31:00,
2013-01-14 18:46:00,34.9,4.3,29.74,North,0,0.0,0.0,27,0.00,,,-99.99,VWS V12.07,2013-01-14 17:46:00,
2013-01-14 19:06:00,34.5,7.7,29.74,North,0,0.0,0.0,32,0.00,,,-99.99,VWS V12.07,2013-01-14 18:06:00,
2013-01-14 19:16:00,34.3,10.6,29.74,North,0,0.0,0.0,37,0.00,,,-99.99,VWS V12.07,2013-01-14 18:16:00,
2013-01-14 19:31:00,33.8,14.2,29.71,North,0,0.0,0.0,44,0.00,,,-99.99,VWS V12.07,2013-01-14 18:31:00,
2013-01-14 19:46:00,33.8,17.1,29.71,North,0,0.0,0.0,50,0.00,,,-99.99,VWS V12.07,2013-01-14 18:46:00,
2013-01-14 20:05:00,33.8,19.4,29.68,North,0,0.0,0.0,55,0.00,,,-99.99,VWS V12.07,2013-01-14 19:05:00,
2013-01-14 20:16:00,33.8,21.8,29.68,North,0,0.0,0.0,61,0.00,,,-99.99,VWS V12.07,2013-01-14 19:16:00,
2013-01-14 20:31:00,34.0,24.2,29.68,North,0,0.0,0.0,67,0.00,,,-99.99,VWS V12.07,2013-01-14 19:31:00,
2013-01-14 20:46:00,34.0,24.9,29.65,North,0,0.0,0.0,69,0.00,,,-99.99,VWS V12.07,2013-01-14 19:46:00,
2013-01-14 21:06:00,34.0,25.9,29.65,North,0,0.0,0.0,72,0.00,,,-99.99,VWS V12.07,2013-01-14 20:06:00,
2013-01-14 21:16:00,33.8,25.7,29.65,North,0,0.0,0.0,72,0.00,,,-99.99,VWS V12.07,2013-01-14 20:16:00,
2013-01-14 21:31:00,34.0,26.6,29.62,North,0,0.0,0.0,74,0.00,,,-99.99,VWS V12.07,2013-01-14 20:31:00,
2013-01-14 21:46:00,34.2,26.8,29.62,North,0,0.0,0.0,74,0.00,,,-99.99,VWS V12.07,2013-01-14 20:46:00,
2013-01-14 22:06:00,34.5,27.4,29.59,North,0,0.0,0.0,75,0.00,,,-99.99,VWS V12.07,2013-01-14 21:06:00,
2013-01-14 22:16:00,34.9,28.1,29.59,North,0,0.0,0.0,76,0.00,,,-99.99,VWS V12.07,2013-01-14 21:16:00,
2013-01-14 22:31:00,34.9,28.1,29.59,North,0,0.0,0.0,76,0.00,,,-99.99,VWS V12.07,2013-01-14 21:31:00,
2013-01-14 22:46:00,34.9,28.1,29.59,North,0,0.0,0.0,76,0.00,,,-99.99,VWS V12.07,2013-01-14 21:46:00,
2013-01-14 23:06:00,35.6,28.8,29.59,North,0,0.0,0.0,76,0.00,,,-99.99,VWS V12.07,2013-01-14 22:06:00,
2013-01-14 23:19:00,35.8,28.8,29.56,North,0,0.0,0.0,76,0.00,,,-99.99,VWS V12.07,2013-01-14 22:19:00,
2013-01-14 23:32:00,35.2,28.5,29.56,North,0,0.0,0.0,76,0.00,,,-99.99,VWS V12.07,2013-01-14 22:32:00,
2013-01-14 23:47:00,35.4,28.6,29.56,North,0,0.0,0.0,76,0.00,,,-99.99,VWS V12.07,2013-01-14 22:47:00,